Regional Weather Roundup
Issued by NWS Little Rock, AR

Home | Current Version | Previous Version | Text Only | Print | Product List | Glossary Off
Versions: 1 2 3 4 5 6 7 8 9 10 11 12 13 14 15 16 17 18 19 20 21 22 23 24 25 26 27 28 29 30 31 32 33 34 35 36 37 38 39 40 41 42 43 44 45 46 47 48 49 50

000
ASUS44 KLZK 051505
RWRLZK

WEATHER ROUNDUP FOR ARKANSAS
NATIONAL WEATHER SERVICE LITTLE ROCK AR
1000 AM CDT THU MAY 05 2016

NOTE: "FAIR" INDICATES FEW OR NO CLOUDS BELOW 12,000 FEET WITH NO
SIGNIFICANT WEATHER AND/OR OBSTRUCTIONS TO VISIBILITY.

ARZ001-003-010-029-051600-
NORTHWEST ARKANSAS

CITY           SKY/WX    TMP DP  RH WIND       PRES   REMARKS
FAYETTEVILLE   SUNNY     63  43  48 NW9       30.09R
FORT SMITH     SUNNY     65  46  50 W6        30.08R
HARRISON       SUNNY     64  42  44 NW8       30.06R
BENTONVILLE    SUNNY     64  37  36 N9        30.10R
ROGERS         SUNNY     63  43  48 NW8       30.09S
SILOAM SPGS    SUNNY     63  45  51 NW6       30.11R
HIGHFILL       SUNNY     67  41  38 N10       30.09R
SPRINGDALE     SUNNY     63  41  45 N9        30.11R
$$

ARZ004-005-016-051600-
NORTH CENTRAL ARKANSAS

CITY           SKY/WX    TMP DP  RH WIND       PRES   REMARKS
BATESVILLE     SUNNY     64  43  45 NW5       30.03R
FLIPPIN        SUNNY    N/A N/A N/A N9G16     30.02R
MTN HOME       SUNNY     63  42  46 N7        30.03S
$$

ARZ040-041-051600-
WEST CENTRAL ARKANSAS

CITY           SKY/WX    TMP DP  RH WIND       PRES   REMARKS
MENA           SUNNY     68  41  37 CALM      30.08S
MOUNT IDA      SUNNY     67  43  41 CALM      30.04R
$$

ARZ009-017-025-026-028-051600-
NORTHEAST ARKANSAS

CITY           SKY/WX    TMP DP  RH WIND       PRES   REMARKS
CORNING          N/A     63  39  42 NW14      30.00R
JONESBORO        N/A     63  40  42 NW9       29.99R
NEWPORT        SUNNY     64  42  44 NW10      30.02R
WALNUT RIDGE   SUNNY     63  39  42 N13       30.00R
BLYTHEVILLE    SUNNY     65  44  46 N18G24    29.97R
NW BLYTHEVILLE SUNNY     64  43  45 N12G18    29.97R
$$

ARZ022-023-033-042-044-051600-
CENTRAL ARKANSAS

CITY           SKY/WX    TMP DP  RH WIND       PRES   REMARKS
LITTLE ROCK    SUNNY     68  42  38 NW12      30.04R
N LITTLE ROCK    N/A     65  45  49 NW6       30.02S
JACKSONVILLE   SUNNY     67  46  46 W9        30.02S
SEARCY         SUNNY     66  43  42 NW12      30.03S
HOT SPRINGS    SUNNY     68  45  43 N6        30.05S
RUSSELLVILLE   SUNNY     65  47  52 NW6       30.05F
CLINTON        FAIR      66  43  42 W7        30.04S
$$

ARZ036-051600-
EAST ARKANSAS

CITY           SKY/WX    TMP DP  RH WIND       PRES   REMARKS
WEST MEMPHIS   SUNNY     64  46  52 NW9G17    29.97R
$$

ARZ050-053-066-070-073-051600-
SOUTHWEST ARKANSAS

CITY           SKY/WX    TMP DP  RH WIND       PRES   REMARKS
ARKADELPHIA    FAIR      69  48  46 NW10      30.05S
CAMDEN         SUNNY     66  45  45 N7        30.05R
TEXARKANA      SUNNY     70  47  43 VRB6      30.07R
EL DORADO      SUNNY     67  46  47 N8        30.05R
DE QUEEN       SUNNY     69  51  52 CALM      30.06S
$$

ARZ056-057-069-051600-
SOUTHEAST ARKANSAS

CITY           SKY/WX    TMP DP  RH WIND       PRES   REMARKS
PINE BLUFF     SUNNY     66  43  43 W6        30.03S
STUTTGART      SUNNY     66  46  48 W10       30.02S
MONTICELLO     SUNNY     68  45  43 E5        30.03R

$$





USA.gov is the U.S. government's official web portal to all federal, state and local government web resources and services.